Time,TemperatureF,DewpointF,PressureIn,WindDirection,WindDirectionDegrees,WindSpeedMPH,WindSpeedGustMPH,Humidity,HourlyPrecipIn,Conditions,Clouds,dailyrainin,SoftwareType,DateUTC
2013-11-03 00:00:00,49.8,42.0,31.12,West,280,0.0,-999.0,75,-99.99,,,0.00,weatherlink.com 1.10,2013-11-03 04:00:00,
2013-11-03 00:15:00,50.5,41.0,31.12,WNW,288,3.0,-999.0,71,-99.99,,,0.00,weatherlink.com 1.10,2013-11-03 04:15:00,
2013-11-03 00:30:00,51.8,42.0,31.12,WNW,287,0.0,-999.0,69,-99.99,,,0.00,weatherlink.com 1.10,2013-11-03 04:30:00,
2013-11-03 00:45:00,51.8,42.0,31.12,WNW,296,0.0,-999.0,69,-99.99,,,0.00,weatherlink.com 1.10,2013-11-03 04:45:00,
2013-11-03 01:00:00,51.0,42.0,31.12,WNW,296,0.0,-999.0,72,-99.99,,,0.00,weatherlink.com 1.10,2013-11-03 05:00:00,
2013-11-03 01:15:00,49.5,42.0,31.12,WNW,296,0.0,-999.0,74,-99.99,,,0.00,weatherlink.com 1.10,2013-11-03 05:15:00,
2013-11-03 01:30:00,48.5,41.0,31.12,WNW,296,0.0,-999.0,76,-99.99,,,0.00,weatherlink.com 1.10,2013-11-03 05:30:00,
2013-11-03 01:45:00,47.8,41.0,31.12,WNW,296,0.0,-999.0,78,-99.99,,,0.00,weatherlink.com 1.10,2013-11-03 05:45:00,
2013-11-03 01:00:00,47.0,41.0,31.12,WNW,296,0.0,-999.0,79,-99.99,,,0.00,weatherlink.com 1.10,2013-11-03 06:00:00,
2013-11-03 01:15:00,46.3,40.0,31.12,WNW,296,0.0,-999.0,80,-99.99,,,0.00,weatherlink.com 1.10,2013-11-03 06:15:00,
2013-11-03 01:30:00,45.8,41.0,31.12,WNW,295,0.0,-999.0,82,-99.99,,,0.00,weatherlink.com 1.10,2013-11-03 06:30:00,
2013-11-03 01:45:00,45.4,40.0,31.12,WNW,296,0.0,-999.0,82,-99.99,,,0.00,weatherlink.com 1.10,2013-11-03 06:45:00,
2013-11-03 02:00:00,45.0,40.0,31.12,WNW,295,0.0,-999.0,83,-99.99,,,0.00,weatherlink.com 1.10,2013-11-03 07:00:00,
2013-11-03 02:15:00,44.6,40.0,31.12,WNW,295,0.0,-999.0,85,-99.99,,,0.00,weatherlink.com 1.10,2013-11-03 07:15:00,
2013-11-03 02:30:00,44.4,40.0,31.12,WNW,296,0.0,-999.0,85,-99.99,,,0.00,weatherlink.com 1.10,2013-11-03 07:30:00,
2013-11-03 02:45:00,43.7,40.0,31.12,WNW,296,0.0,-999.0,86,-99.99,,,0.00,weatherlink.com 1.10,2013-11-03 07:45:00,
2013-11-03 03:00:00,43.5,40.0,31.12,WNW,296,0.0,-999.0,87,-99.99,,,0.00,weatherlink.com 1.10,2013-11-03 08:00:00,
2013-11-03 03:15:00,43.2,40.0,31.12,WNW,296,0.0,-999.0,88,-99.99,,,0.00,weatherlink.com 1.10,2013-11-03 08:15:00,
2013-11-03 03:30:00,43.1,40.0,31.12,WNW,296,0.0,-999.0,89,-99.99,,,0.00,weatherlink.com 1.10,2013-11-03 08:30:00,
2013-11-03 03:45:00,43.3,40.0,31.12,WNW,295,0.0,-999.0,89,-99.99,,,0.00,weatherlink.com 1.10,2013-11-03 08:45:00,
2013-11-03 04:00:00,43.4,40.0,31.12,WNW,296,0.0,-999.0,89,-99.99,,,0.00,weatherlink.com 1.10,2013-11-03 09:00:00,
2013-11-03 04:15:00,44.5,41.0,31.12,WNW,296,0.0,-999.0,87,-99.99,,,0.00,weatherlink.com 1.10,2013-11-03 09:15:00,
2013-11-03 04:30:00,46.4,42.0,31.12,West,281,0.0,-999.0,83,-99.99,,,0.00,weatherlink.com 1.10,2013-11-03 09:30:00,
2013-11-03 04:45:00,47.3,42.0,31.12,West,281,0.0,-999.0,81,-99.99,,,0.00,weatherlink.com 1.10,2013-11-03 09:45:00,
2013-11-03 05:00:00,47.3,41.0,31.12,West,281,0.0,-999.0,80,-99.99,,,0.00,weatherlink.com 1.10,2013-11-03 10:00:00,
2013-11-03 05:15:00,47.3,41.0,31.12,West,281,0.0,-999.0,80,-99.99,,,0.00,weatherlink.com 1.10,2013-11-03 10:15:00,
2013-11-03 05:30:00,46.8,41.0,31.12,West,281,0.0,-999.0,81,-99.99,,,0.00,weatherlink.com 1.10,2013-11-03 10:30:00,
2013-11-03 05:45:00,46.1,41.0,31.12,West,281,0.0,-999.0,83,-99.99,,,0.00,weatherlink.com 1.10,2013-11-03 10:45:00,
2013-11-03 06:00:00,46.0,41.0,31.12,West,281,0.0,-999.0,82,-99.99,,,0.00,weatherlink.com 1.10,2013-11-03 11:00:00,
2013-11-03 06:16:00,45.8,41.0,31.12,West,281,0.0,-999.0,83,-99.99,,,0.00,weatherlink.com 1.10,2013-11-03 11:16:00,
2013-11-03 06:31:00,45.2,41.0,31.12,West,281,0.0,-999.0,84,-99.99,,,0.00,weatherlink.com 1.10,2013-11-03 11:31:00,
2013-11-03 06:46:00,45.1,41.0,31.12,West,281,0.0,-999.0,85,-99.99,,,0.00,weatherlink.com 1.10,2013-11-03 11:46:00,
2013-11-03 07:01:00,47.2,42.0,31.12,NNW,346,0.0,-999.0,83,-99.99,,,0.00,weatherlink.com 1.10,2013-11-03 12:01:00,
2013-11-03 07:16:00,48.9,43.0,31.12,SSE,156,1.0,-999.0,81,-99.99,,,0.00,weatherlink.com 1.10,2013-11-03 12:16:00,
2013-11-03 07:31:00,49.3,43.0,31.12,West,278,1.0,-999.0,80,-99.99,,,0.00,weatherlink.com 1.10,2013-11-03 12:31:00,
2013-11-03 07:46:00,49.5,44.0,31.12,NNW,344,0.0,-999.0,80,-99.99,,,0.00,weatherlink.com 1.10,2013-11-03 12:46:00,
2013-11-03 08:01:00,49.5,43.0,31.12,WNW,284,4.0,-999.0,78,-99.99,,,0.00,weatherlink.com 1.10,2013-11-03 13:01:00,
2013-11-03 08:16:00,49.5,43.0,31.12,WNW,300,2.0,-999.0,79,-99.99,,,0.00,weatherlink.com 1.10,2013-11-03 13:16:00,
2013-11-03 08:31:00,50.0,43.0,31.12,NW,306,1.0,-999.0,78,-99.99,,,0.00,weatherlink.com 1.10,2013-11-03 13:31:00,
2013-11-03 08:46:00,51.1,43.0,31.12,West,275,4.0,-999.0,75,-99.99,,,0.00,weatherlink.com 1.10,2013-11-03 13:46:00,
2013-11-03 09:01:00,50.9,42.0,31.12,West,279,1.0,-999.0,72,-99.99,,,0.00,weatherlink.com 1.10,2013-11-03 14:01:00,
2013-11-03 09:16:00,51.1,42.0,31.12,NW,304,2.0,-999.0,70,-99.99,,,0.00,weatherlink.com 1.10,2013-11-03 14:16:00,
2013-11-03 09:31:00,51.1,41.0,31.12,West,272,1.0,-999.0,69,-99.99,,,0.00,weatherlink.com 1.10,2013-11-03 14:31:00,
2013-11-03 09:46:00,51.9,40.0,31.12,WNW,292,0.0,-999.0,65,-99.99,,,0.00,weatherlink.com 1.10,2013-11-03 14:46:00,
2013-11-03 10:01:00,52.6,40.0,31.12,NW,313,5.0,-999.0,63,-99.99,,,0.00,weatherlink.com 1.10,2013-11-03 15:01:00,
2013-11-03 10:16:00,52.8,40.0,31.12,WSW,255,4.0,-999.0,62,-99.99,,,0.00,weatherlink.com 1.10,2013-11-03 15:16:00,
2013-11-03 10:31:00,52.3,39.0,31.12,NNE,14,3.0,-999.0,62,-99.99,,,0.00,weatherlink.com 1.10,2013-11-03 15:31:00,
2013-11-03 10:46:00,52.9,40.0,31.12,NNW,327,1.0,-999.0,61,-99.99,,,0.00,weatherlink.com 1.10,2013-11-03 15:46:00,
2013-11-03 11:01:00,53.3,40.0,31.12,WNW,302,3.0,-999.0,60,-99.99,,,0.00,weatherlink.com 1.10,2013-11-03 16:01:00,
2013-11-03 11:16:00,53.5,40.0,31.12,WSW,242,0.0,-999.0,61,-99.99,,,0.00,weatherlink.com 1.10,2013-11-03 16:16:00,
2013-11-03 11:31:00,53.9,38.0,31.12,WNW,285,4.0,-999.0,56,-99.99,,,0.00,weatherlink.com 1.10,2013-11-03 16:31:00,
2013-11-03 11:46:00,54.4,39.0,31.12,North,360,1.0,-999.0,56,-99.99,,,0.00,weatherlink.com 1.10,2013-11-03 16:46:00,
2013-11-03 12:01:00,54.6,39.0,31.12,WNW,300,2.0,-999.0,55,-99.99,,,0.00,weatherlink.com 1.10,2013-11-03 17:01:00,
2013-11-03 12:16:00,54.9,39.0,31.12,NE,53,0.0,-999.0,55,-99.99,,,0.00,weatherlink.com 1.10,2013-11-03 17:16:00,
2013-11-03 12:31:00,55.1,38.0,31.12,West,267,1.0,-999.0,52,-99.99,,,0.00,weatherlink.com 1.10,2013-11-03 17:31:00,
2013-11-03 12:46:00,55.3,38.0,31.12,West,276,7.0,-999.0,52,-99.99,,,0.00,weatherlink.com 1.10,2013-11-03 17:46:00,
2013-11-03 13:01:00,55.7,36.0,31.12,West,261,1.0,-999.0,48,-99.99,,,0.00,weatherlink.com 1.10,2013-11-03 18:01:00,
2013-11-03 13:16:00,55.6,36.0,31.12,WNW,284,7.0,-999.0,48,-99.99,,,0.00,weatherlink.com 1.10,2013-11-03 18:16:00,
2013-11-03 13:31:00,55.9,35.0,31.12,WNW,286,1.0,-999.0,46,-99.99,,,0.00,weatherlink.com 1.10,2013-11-03 18:31:00,
2013-11-03 13:46:00,56.1,35.0,31.12,NW,306,2.0,-999.0,46,-99.99,,,0.00,weatherlink.com 1.10,2013-11-03 18:46:00,
2013-11-03 14:01:00,56.4,35.0,31.12,SSE,155,1.0,-999.0,45,-99.99,,,0.00,weatherlink.com 1.10,2013-11-03 19:01:00,
2013-11-03 14:16:00,56.1,35.0,31.12,North,10,1.0,-999.0,45,-99.99,,,0.00,weatherlink.com 1.10,2013-11-03 19:16:00,
2013-11-03 14:31:00,56.3,35.0,31.12,WNW,288,1.0,-999.0,45,-99.99,,,0.00,weatherlink.com 1.10,2013-11-03 19:31:00,
2013-11-03 14:46:00,56.3,35.0,31.12,NE,55,2.0,-999.0,45,-99.99,,,0.00,weatherlink.com 1.10,2013-11-03 19:46:00,
2013-11-03 15:01:00,56.4,37.0,31.12,SE,141,0.0,-999.0,48,-99.99,,,0.00,weatherlink.com 1.10,2013-11-03 20:01:00,
2013-11-03 15:17:00,56.6,35.0,31.12,WNW,300,0.0,-999.0,45,-99.99,,,0.00,weatherlink.com 1.10,2013-11-03 20:17:00,
2013-11-03 15:31:00,56.2,34.0,31.12,WNW,301,0.0,-999.0,44,-99.99,,,0.00,weatherlink.com 1.10,2013-11-03 20:31:00,
2013-11-03 15:46:00,55.9,33.0,31.12,West,277,0.0,-999.0,43,-99.99,,,0.00,weatherlink.com 1.10,2013-11-03 20:46:00,
2013-11-03 16:01:00,55.8,30.0,31.12,NW,306,2.0,-999.0,38,-99.99,,,0.00,weatherlink.com 1.10,2013-11-03 21:01:00,
2013-11-03 16:16:00,55.3,29.0,31.12,West,280,4.0,-999.0,37,-99.99,,,0.00,weatherlink.com 1.10,2013-11-03 21:16:00,
2013-11-03 16:31:00,54.8,29.0,31.12,West,279,0.0,-999.0,37,-99.99,,,0.00,weatherlink.com 1.10,2013-11-03 21:31:00,
2013-11-03 16:46:00,54.3,30.0,31.12,NW,310,1.0,-999.0,39,-99.99,,,0.00,weatherlink.com 1.10,2013-11-03 21:46:00,
2013-11-03 17:01:00,53.7,30.0,31.12,WNW,293,1.0,-999.0,40,-99.99,,,0.00,weatherlink.com 1.10,2013-11-03 22:01:00,
2013-11-03 17:16:00,53.4,29.0,31.12,NW,319,0.0,-999.0,39,-99.99,,,0.00,weatherlink.com 1.10,2013-11-03 22:16:00,
2013-11-03 17:31:00,52.8,29.0,31.12,WNW,288,1.0,-999.0,40,-99.99,,,0.00,weatherlink.com 1.10,2013-11-03 22:31:00,
2013-11-03 17:46:00,51.9,29.0,31.12,WNW,288,0.0,-999.0,42,-99.99,,,0.00,weatherlink.com 1.10,2013-11-03 22:46:00,
2013-11-03 18:01:00,51.2,29.0,31.12,NNW,327,0.0,-999.0,42,-99.99,,,0.00,weatherlink.com 1.10,2013-11-03 23:01:00,
2013-11-03 18:16:00,51.0,30.0,31.12,NNW,327,0.0,-999.0,44,-99.99,,,0.00,weatherlink.com 1.10,2013-11-03 23:16:00,
2013-11-03 18:31:00,50.3,30.0,31.12,NNW,327,0.0,-999.0,45,-99.99,,,0.00,weatherlink.com 1.10,2013-11-03 23:31:00,
2013-11-03 18:46:00,49.2,30.0,31.12,NW,326,0.0,-999.0,47,-99.99,,,0.00,weatherlink.com 1.10,2013-11-03 23:46:00,
2013-11-03 19:01:00,48.0,33.0,31.12,NW,326,0.0,-999.0,56,-99.99,,,0.00,weatherlink.com 1.10,2013-11-04 00:01:00,
2013-11-03 19:16:00,46.7,34.0,31.12,NNW,327,0.0,-999.0,61,-99.99,,,0.00,weatherlink.com 1.10,2013-11-04 00:16:00,
2013-11-03 19:31:00,45.6,33.0,31.12,NNW,327,0.0,-999.0,61,-99.99,,,0.00,weatherlink.com 1.10,2013-11-04 00:31:00,
2013-11-03 19:46:00,44.6,33.0,31.12,NW,326,0.0,-999.0,63,-99.99,,,0.00,weatherlink.com 1.10,2013-11-04 00:46:00,
2013-11-03 20:01:00,43.5,32.0,31.12,NNW,327,0.0,-999.0,65,-99.99,,,0.00,weatherlink.com 1.10,2013-11-04 01:01:00,
2013-11-03 20:16:00,42.7,32.0,31.12,NNW,327,0.0,-999.0,67,-99.99,,,0.00,weatherlink.com 1.10,2013-11-04 01:16:00,
2013-11-03 20:31:00,42.2,33.0,31.12,NNW,327,0.0,-999.0,69,-99.99,,,0.00,weatherlink.com 1.10,2013-11-04 01:31:00,
2013-11-03 20:46:00,42.4,32.0,31.12,NNW,327,0.0,-999.0,67,-99.99,,,0.00,weatherlink.com 1.10,2013-11-04 01:46:00,
2013-11-03 21:01:00,43.4,31.0,31.12,NW,323,0.0,-999.0,61,-99.99,,,0.00,weatherlink.com 1.10,2013-11-04 02:01:00,
2013-11-03 21:16:00,45.0,30.0,31.12,ESE,109,0.0,-999.0,57,-99.99,,,0.00,weatherlink.com 1.10,2013-11-04 02:16:00,
2013-11-03 21:31:00,46.3,30.0,31.12,NW,317,0.0,-999.0,54,-99.99,,,0.00,weatherlink.com 1.10,2013-11-04 02:31:00,
2013-11-03 21:46:00,46.8,29.0,31.12,NNE,25,0.0,-999.0,51,-99.99,,,0.00,weatherlink.com 1.10,2013-11-04 02:46:00,
2013-11-03 22:01:00,46.6,29.0,31.12,West,273,1.0,-999.0,51,-99.99,,,0.00,weatherlink.com 1.10,2013-11-04 03:01:00,
2013-11-03 22:16:00,46.3,28.0,31.12,NW,313,2.0,-999.0,50,-99.99,,,0.00,weatherlink.com 1.10,2013-11-04 03:16:00,
2013-11-03 22:31:00,45.9,29.0,31.12,WSW,249,5.0,-999.0,51,-99.99,,,0.00,weatherlink.com 1.10,2013-11-04 03:31:00,
2013-11-03 22:46:00,45.2,28.0,31.12,SSE,155,1.0,-999.0,52,-99.99,,,0.00,weatherlink.com 1.10,2013-11-04 03:46:00,
2013-11-03 23:01:00,44.7,28.0,31.12,NNW,327,1.0,-999.0,52,-99.99,,,0.00,weatherlink.com 1.10,2013-11-04 04:01:00,
2013-11-03 23:16:00,44.3,28.0,31.12,NE,45,0.0,-999.0,53,-99.99,,,0.00,weatherlink.com 1.10,2013-11-04 04:16:00,
2013-11-03 23:31:00,43.9,28.0,31.12,West,281,0.0,-999.0,54,-99.99,,,0.00,weatherlink.com 1.10,2013-11-04 04:31:00,
2013-11-03 23:46:00,43.3,28.0,31.12,NNE,15,0.0,-999.0,55,-99.99,,,0.00,weatherlink.com 1.10,2013-11-04 04:46:00,